Time,TemperatureF,DewpointF,PressureIn,WindDirection,WindDirectionDegrees,WindSpeedMPH,WindSpeedGustMPH,Humidity,HourlyPrecipIn,Conditions,Clouds,dailyrainin,SoftwareType,DateUTC
2013-09-12 00:08:00,67.1,65.0,29.90,ESE,107,0.0,0.0,94,0.00,,,0.00,weatherlink.com 1.10,2013-09-12 04:08:00,
2013-09-12 00:23:00,67.0,65.0,29.90,ESE,108,0.0,0.0,94,0.00,,,0.00,weatherlink.com 1.10,2013-09-12 04:23:00,
2013-09-12 00:38:00,66.9,65.0,29.89,ESE,107,0.0,0.0,94,0.00,,,0.00,weatherlink.com 1.10,2013-09-12 04:38:00,
2013-09-12 00:53:00,66.7,65.0,29.89,ESE,107,0.0,0.0,94,0.00,,,0.00,weatherlink.com 1.10,2013-09-12 04:53:00,
2013-09-12 01:08:00,66.6,65.0,29.89,ESE,107,0.0,0.0,95,0.00,,,0.00,weatherlink.com 1.10,2013-09-12 05:08:00,
2013-09-12 01:23:00,66.7,65.0,29.89,ESE,108,0.0,0.0,95,0.00,,,0.00,weatherlink.com 1.10,2013-09-12 05:23:00,
2013-09-12 01:38:00,66.4,65.0,29.88,ESE,108,0.0,0.0,95,0.00,,,0.00,weatherlink.com 1.10,2013-09-12 05:38:00,
2013-09-12 01:53:00,66.2,65.0,29.88,ESE,107,0.0,0.0,95,0.00,,,0.00,weatherlink.com 1.10,2013-09-12 05:53:00,
2013-09-12 02:08:00,66.1,65.0,29.88,ESE,108,0.0,0.0,95,0.00,,,0.00,weatherlink.com 1.10,2013-09-12 06:08:00,
2013-09-12 02:23:00,66.4,65.0,29.87,ESE,107,0.0,0.0,96,0.00,,,0.00,weatherlink.com 1.10,2013-09-12 06:23:00,
2013-09-12 02:38:00,66.7,66.0,29.87,ESE,108,0.0,0.0,96,0.00,,,0.00,weatherlink.com 1.10,2013-09-12 06:38:00,
2013-09-12 02:53:00,66.8,66.0,29.87,ESE,108,0.0,0.0,96,0.00,,,0.00,weatherlink.com 1.10,2013-09-12 06:53:00,
2013-09-12 03:08:00,66.8,66.0,29.87,ESE,108,0.0,0.0,96,0.00,,,0.00,weatherlink.com 1.10,2013-09-12 07:08:00,
2013-09-12 03:23:00,67.0,66.0,29.86,NW,319,0.0,0.0,96,0.00,,,0.00,weatherlink.com 1.10,2013-09-12 07:23:00,
2013-09-12 03:39:00,67.0,66.0,29.86,NW,319,0.0,0.0,96,0.00,,,0.00,weatherlink.com 1.10,2013-09-12 07:39:00,
2013-09-12 03:54:00,67.2,66.0,29.86,NW,316,0.0,0.0,96,0.00,,,0.00,weatherlink.com 1.10,2013-09-12 07:54:00,
2013-09-12 04:09:00,66.4,65.0,29.86,NW,316,0.0,0.0,96,0.00,,,0.00,weatherlink.com 1.10,2013-09-12 08:09:00,
2013-09-12 04:24:00,66.2,65.0,29.86,NW,316,0.0,0.0,96,0.00,,,0.00,weatherlink.com 1.10,2013-09-12 08:24:00,
2013-09-12 04:39:00,66.3,66.0,29.86,NW,316,0.0,0.0,97,0.00,,,0.00,weatherlink.com 1.10,2013-09-12 08:39:00,
2013-09-12 04:54:00,66.7,66.0,29.86,NW,316,0.0,0.0,97,0.00,,,0.00,weatherlink.com 1.10,2013-09-12 08:54:00,
2013-09-12 05:09:00,66.9,66.0,29.86,NW,316,0.0,0.0,97,0.00,,,0.00,weatherlink.com 1.10,2013-09-12 09:09:00,
2013-09-12 05:24:00,66.8,66.0,29.86,NW,316,0.0,0.0,97,0.00,,,0.00,weatherlink.com 1.10,2013-09-12 09:24:00,
2013-09-12 05:39:00,66.9,66.0,29.87,NW,316,0.0,0.0,97,0.00,,,0.00,weatherlink.com 1.10,2013-09-12 09:39:00,
2013-09-12 05:54:00,66.4,65.0,29.87,NW,309,0.0,0.0,96,0.00,,,0.00,weatherlink.com 1.10,2013-09-12 09:54:00,
2013-09-12 06:09:00,65.9,65.0,29.88,NW,308,0.0,0.0,96,0.00,,,0.00,weatherlink.com 1.10,2013-09-12 10:09:00,
2013-09-12 06:24:00,65.5,64.0,29.88,NW,308,0.0,0.0,95,0.00,,,0.00,weatherlink.com 1.10,2013-09-12 10:24:00,
2013-09-12 06:39:00,65.1,64.0,29.88,NW,311,0.0,0.0,95,0.00,,,0.00,weatherlink.com 1.10,2013-09-12 10:39:00,
2013-09-12 06:54:00,64.9,63.0,29.88,NW,312,0.0,0.0,94,0.00,,,0.00,weatherlink.com 1.10,2013-09-12 10:54:00,
2013-09-12 07:09:00,64.4,62.0,29.89,NW,312,0.0,0.0,93,0.00,,,0.00,weatherlink.com 1.10,2013-09-12 11:09:00,
2013-09-12 07:24:00,63.8,62.0,29.89,NW,312,0.0,0.0,93,0.00,,,0.00,weatherlink.com 1.10,2013-09-12 11:24:00,
2013-09-12 07:39:00,63.3,61.0,29.90,NW,312,0.0,0.0,93,0.00,,,0.00,weatherlink.com 1.10,2013-09-12 11:39:00,
2013-09-12 07:54:00,63.0,61.0,29.90,NW,311,0.0,0.0,93,0.00,,,0.00,weatherlink.com 1.10,2013-09-12 11:54:00,
2013-09-12 08:09:00,62.8,61.0,29.89,NW,312,0.0,0.0,93,0.00,,,0.00,weatherlink.com 1.10,2013-09-12 12:09:00,
2013-09-12 08:24:00,62.8,61.0,29.90,NW,312,0.0,0.0,93,0.00,,,0.00,weatherlink.com 1.10,2013-09-12 12:24:00,
2013-09-12 08:39:00,63.0,61.0,29.90,NW,312,0.0,0.0,93,0.00,,,0.00,weatherlink.com 1.10,2013-09-12 12:39:00,
2013-09-12 08:54:00,63.4,61.0,29.90,NW,312,0.0,0.0,92,0.00,,,0.00,weatherlink.com 1.10,2013-09-12 12:54:00,
2013-09-12 09:09:00,63.8,62.0,29.90,NW,312,0.0,0.0,92,0.00,,,0.00,weatherlink.com 1.10,2013-09-12 13:09:00,
2013-09-12 09:24:00,64.3,62.0,29.90,SE,129,0.0,2.0,91,0.00,,,0.00,weatherlink.com 1.10,2013-09-12 13:24:00,
2013-09-12 09:39:00,65.1,62.0,29.91,West,276,0.0,0.0,88,0.00,,,0.00,weatherlink.com 1.10,2013-09-12 13:39:00,
2013-09-12 09:54:00,66.0,61.0,29.91,WNW,285,0.0,0.0,85,0.00,,,0.00,weatherlink.com 1.10,2013-09-12 13:54:00,
2013-09-12 10:09:00,66.9,61.0,29.91,ESE,113,0.0,0.0,82,0.00,,,0.00,weatherlink.com 1.10,2013-09-12 14:09:00,
2013-09-12 10:24:00,67.9,61.0,29.91,West,262,0.0,0.0,79,0.00,,,0.00,weatherlink.com 1.10,2013-09-12 14:24:00,
2013-09-12 10:39:00,69.6,60.0,29.91,WNW,300,0.0,2.0,71,0.00,,,0.00,weatherlink.com 1.10,2013-09-12 14:39:00,
2013-09-12 10:54:00,71.6,60.0,29.91,NW,319,0.0,0.0,68,0.00,,,0.00,weatherlink.com 1.10,2013-09-12 14:54:00,
2013-09-12 11:09:00,72.8,61.0,29.91,NW,306,0.0,0.0,66,0.00,,,0.00,weatherlink.com 1.10,2013-09-12 15:09:00,
2013-09-12 11:24:00,73.1,59.0,29.91,WSW,239,0.0,0.0,61,0.00,,,0.00,weatherlink.com 1.10,2013-09-12 15:24:00,
2013-09-12 11:39:00,73.5,58.0,29.91,ESE,116,2.0,2.0,58,0.00,,,0.00,weatherlink.com 1.10,2013-09-12 15:39:00,
2013-09-12 11:54:00,73.7,57.0,29.91,NW,323,0.0,3.0,56,0.00,,,0.00,weatherlink.com 1.10,2013-09-12 15:54:00,
2013-09-12 12:09:00,74.0,58.0,29.90,WNW,301,0.0,3.0,58,0.00,,,0.00,weatherlink.com 1.10,2013-09-12 16:09:00,
2013-09-12 12:24:00,74.2,58.0,29.90,SE,135,1.0,3.0,58,0.00,,,0.00,weatherlink.com 1.10,2013-09-12 16:24:00,
2013-09-12 12:39:00,75.0,57.0,29.90,SE,143,0.0,1.0,53,0.00,,,0.00,weatherlink.com 1.10,2013-09-12 16:39:00,
2013-09-12 12:55:00,75.7,57.0,29.90,West,273,0.0,1.0,52,0.00,,,0.00,weatherlink.com 1.10,2013-09-12 16:55:00,
2013-09-12 13:10:00,75.5,55.0,29.89,WSW,238,0.0,3.0,50,0.00,,,0.00,weatherlink.com 1.10,2013-09-12 17:10:00,
2013-09-12 13:25:00,75.3,55.0,29.89,NW,314,1.0,3.0,49,0.00,,,0.00,weatherlink.com 1.10,2013-09-12 17:25:00,
2013-09-12 13:40:00,74.5,57.0,29.89,WNW,301,0.0,3.0,54,0.00,,,0.00,weatherlink.com 1.10,2013-09-12 17:40:00,
2013-09-12 13:55:00,73.6,56.0,29.89,West,262,0.0,0.0,55,0.00,,,0.00,weatherlink.com 1.10,2013-09-12 17:55:00,
2013-09-12 14:10:00,73.7,57.0,29.89,SE,125,0.0,1.0,57,0.00,,,0.00,weatherlink.com 1.10,2013-09-12 18:10:00,
2013-09-12 14:25:00,72.8,58.0,29.89,SSE,148,0.0,0.0,60,0.00,,,0.00,weatherlink.com 1.10,2013-09-12 18:25:00,
2013-09-12 14:40:00,72.6,58.0,29.88,WNW,294,0.0,0.0,60,0.00,,,0.00,weatherlink.com 1.10,2013-09-12 18:40:00,
2013-09-12 14:55:00,72.9,59.0,29.87,NW,310,0.0,0.0,61,0.00,,,0.00,weatherlink.com 1.10,2013-09-12 18:55:00,
2013-09-12 15:10:00,72.9,57.0,29.87,WNW,293,0.0,0.0,58,0.00,,,0.00,weatherlink.com 1.10,2013-09-12 19:10:00,
2013-09-12 15:25:00,73.0,58.0,29.86,WNW,302,0.0,0.0,59,0.00,,,0.00,weatherlink.com 1.10,2013-09-12 19:25:00,
2013-09-12 15:40:00,73.0,57.0,29.86,North,350,0.0,0.0,57,0.00,,,0.00,weatherlink.com 1.10,2013-09-12 19:40:00,
2013-09-12 15:55:00,71.8,59.0,29.88,West,269,1.0,7.0,64,0.00,,,0.00,weatherlink.com 1.10,2013-09-12 19:55:00,
2013-09-12 16:10:00,65.7,60.0,29.88,NW,321,0.0,3.0,82,0.04,,,0.04,weatherlink.com 1.10,2013-09-12 20:10:00,
2013-09-12 16:25:00,64.9,62.0,29.86,South,188,0.0,0.0,90,0.05,,,0.05,weatherlink.com 1.10,2013-09-12 20:25:00,
2013-09-12 16:40:00,65.0,62.0,29.87,SSW,198,0.0,0.0,91,0.05,,,0.05,weatherlink.com 1.10,2013-09-12 20:40:00,
2013-09-12 16:55:00,65.6,63.0,29.87,NW,321,0.0,0.0,92,0.05,,,0.05,weatherlink.com 1.10,2013-09-12 20:55:00,
2013-09-12 17:10:00,66.0,63.0,29.87,NW,308,0.0,2.0,91,0.01,,,0.05,weatherlink.com 1.10,2013-09-12 21:10:00,
2013-09-12 17:25:00,66.3,61.0,29.87,ESE,122,0.0,2.0,83,0.00,,,0.05,weatherlink.com 1.10,2013-09-12 21:25:00,
2013-09-12 17:40:00,66.3,61.0,29.87,SSE,148,3.0,3.0,82,0.00,,,0.05,weatherlink.com 1.10,2013-09-12 21:40:00,
2013-09-12 17:55:00,66.6,60.0,29.88,WNW,300,0.0,1.0,79,0.00,,,0.05,weatherlink.com 1.10,2013-09-12 21:55:00,
2013-09-12 18:10:00,66.0,58.0,29.89,WNW,283,1.0,4.0,75,0.00,,,0.05,weatherlink.com 1.10,2013-09-12 22:10:00,
2013-09-12 18:25:00,64.4,58.0,29.89,SSE,151,1.0,4.0,80,0.01,,,0.06,weatherlink.com 1.10,2013-09-12 22:25:00,
2013-09-12 18:40:00,63.1,59.0,29.90,SE,139,0.0,0.0,87,0.01,,,0.06,weatherlink.com 1.10,2013-09-12 22:40:00,
2013-09-12 18:55:00,62.5,59.0,29.90,SE,141,0.0,0.0,89,0.01,,,0.06,weatherlink.com 1.10,2013-09-12 22:55:00,
2013-09-12 19:10:00,62.0,59.0,29.90,SE,141,0.0,0.0,90,0.01,,,0.06,weatherlink.com 1.10,2013-09-12 23:10:00,
2013-09-12 19:25:00,61.6,59.0,29.91,SE,141,0.0,0.0,90,0.00,,,0.06,weatherlink.com 1.10,2013-09-12 23:25:00,
2013-09-12 19:40:00,61.3,58.0,29.91,SE,131,0.0,0.0,90,0.00,,,0.06,weatherlink.com 1.10,2013-09-12 23:40:00,
2013-09-12 19:55:00,61.1,58.0,29.92,SE,131,0.0,0.0,90,0.00,,,0.06,weatherlink.com 1.10,2013-09-12 23:55:00,
2013-09-12 20:10:00,60.6,57.0,29.93,ESE,105,0.0,2.0,88,0.00,,,0.06,weatherlink.com 1.10,2013-09-13 00:10:00,
2013-09-12 20:25:00,60.2,56.0,29.93,SW,219,0.0,2.0,85,0.00,,,0.06,weatherlink.com 1.10,2013-09-13 00:25:00,
2013-09-12 20:40:00,60.3,56.0,29.94,SSE,154,0.0,0.0,85,0.00,,,0.06,weatherlink.com 1.10,2013-09-13 00:40:00,
2013-09-12 20:55:00,59.6,55.0,29.95,SE,134,0.0,0.0,84,0.00,,,0.06,weatherlink.com 1.10,2013-09-13 00:55:00,
2013-09-12 21:10:00,58.9,54.0,29.95,NNW,330,2.0,2.0,83,0.00,,,0.06,weatherlink.com 1.10,2013-09-13 01:10:00,
2013-09-12 21:25:00,58.8,53.0,29.96,SE,125,0.0,2.0,82,0.00,,,0.06,weatherlink.com 1.10,2013-09-13 01:25:00,
2013-09-12 21:40:00,58.8,53.0,29.97,WNW,291,0.0,3.0,81,0.00,,,0.06,weatherlink.com 1.10,2013-09-13 01:40:00,
2013-09-12 21:55:00,58.7,52.0,29.98,SE,142,0.0,0.0,79,0.00,,,0.06,weatherlink.com 1.10,2013-09-13 01:55:00,
2013-09-12 22:10:00,58.3,52.0,29.98,NW,304,1.0,2.0,79,0.00,,,0.06,weatherlink.com 1.10,2013-09-13 02:10:00,
2013-09-12 22:25:00,58.0,51.0,29.98,WNW,295,0.0,1.0,78,0.00,,,0.06,weatherlink.com 1.10,2013-09-13 02:25:00,
2013-09-12 22:41:00,57.6,51.0,29.98,WNW,291,0.0,4.0,78,0.00,,,0.06,weatherlink.com 1.10,2013-09-13 02:41:00,
2013-09-12 22:56:00,57.4,51.0,29.99,West,262,0.0,0.0,78,0.00,,,0.06,weatherlink.com 1.10,2013-09-13 02:56:00,
2013-09-12 23:11:00,57.0,51.0,29.99,SE,138,1.0,1.0,79,0.00,,,0.06,weatherlink.com 1.10,2013-09-13 03:11:00,
2013-09-12 23:26:00,56.7,50.0,29.99,NW,304,0.0,0.0,79,0.00,,,0.06,weatherlink.com 1.10,2013-09-13 03:26:00,
2013-09-12 23:41:00,56.2,50.0,30.00,NW,304,0.0,0.0,80,0.00,,,0.06,weatherlink.com 1.10,2013-09-13 03:41:00,
2013-09-12 23:56:00,55.7,50.0,30.00,NW,304,0.0,0.0,82,0.00,,,0.06,weatherlink.com 1.10,2013-09-13 03:56:00,